sat.trackr.live / text

‹ back to catalog

CAPELLA-16 (ACADIA-6)

NORAD 65318 · 2025-188D

PAYLOAD ACTIVE UNKNOWN

§ Identity

Operator
Country
US
Launch date
2025-08-26
Launch site
AFWTR
Launch vehicle
Mass (kg)
RCS (m²)

External: N2YO · Heavens-Above · Gunter

§ Orbital elements

Epoch: 2026-05-25T04:28:14.116800Z

Period
96.36 min
Inclination
97.7385°
Eccentricity
0.0002921
Mean motion
14.94438211 rev/d
Perigee alt
582.1 km
Apogee alt
586.2 km
Semi-major
6,962.3 km
B*
5.4795e-4
RAAN
220.6733°
Arg perigee
333.5085°
Mean anomaly
26.5986°
Rev number
4,048

§ Raw data

CAPELLA-16 (ACADIA-6)1 65318U 25188D   26145.18627450  .00005852  00000+0  54795-3 0  99902 65318  97.7385 220.6733 0002921 333.5085  26.5986 14.94438211 40487

JSON: /api/v1/satellites/65318 · /tle

For live sub-satellite position, see the globe view (requires WebGL).

§ Visibility from observer

Set your observer location to see the next 7 days of passes ≥ 10°. The values pass through the URL so the page stays shareable.

No JS? Fill the form by hand. The geolocation button needs JavaScript.